Location: Waco, TX
(31.5480°N, 97.1670°W)
Time: 22:17:44
(UTC-05:00)

ISS - Pass Details

Date: 22 September 2018
Orbit: 403 x 409 km, 51.6° (Epoch: 24 September)

Event Time Altitude Azimuth Distance (km) Brightness Sun altitude
Rises 04:28:51 0° 312° (NW) 2,321 - -35.5°
Reaches altitude 10° 04:30:57 10° 310° (NW) 1,457 - -35.1°
Maximum altitude 04:34:11 69° 227° (SW) 433 - -34.5°
Drops below altitude 10° 04:37:25 10° 143° (SE) 1,447 - -33.8°
Sets 04:39:29 0° 141° (SE) 2,301 - -33.4°
